Location: Zagreb
(45.8000°N, 16.0000°E)
Time: 04:12:26
(UTC+01:00)

Vanguard 2 Rocket - Visible Passes

Search period start: 15 December 2025 00:00
Search period end: 25 December 2025 00:00
Orbit: 553 x 3287 km, 32.9° (Epoch: 13 December)

Date Brightness Start Highest point End Pass type
(mag) Time Alt. Az. Time Alt. Az. Time Alt. Az.
15 Dec 11.3 04:55:06 10° S 05:05:57 18° SE 05:16:25 10° ESE visible
16 Dec 11.4 03:57:42 10° SE 04:00:08 10° SE 04:02:34 10° ESE visible
16 Dec 11.0 05:58:24 10° SSW 06:14:06 31° SSE 06:28:23 10° E visible
17 Dec 11.1 04:54:30 10° S 05:07:48 24° SE 05:20:56 10° E visible
18 Dec 11.1 03:52:38 10° SSE 04:01:52 16° SE 04:11:27 10° ESE visible
18 Dec 10.8 05:59:25 10° SSW 06:16:05 37° SSE 06:31:39 10° E visible
19 Dec 10.9 04:54:58 10° SSW 05:09:37 29° SE 05:24:35 10° E visible
20 Dec 10.9 03:51:51 10° S 04:03:33 21° SE 04:16:11 10° E visible
20 Dec 10.6 06:00:53 10° SW 06:18:04 42° SSE 06:34:38 10° E visible
21 Dec 11.0 02:51:32 10° SSE 02:57:59 13° SE 03:04:52 10° ESE visible
21 Dec 10.6 04:56:04 10° SSW 05:11:26 35° SSE 05:27:45 10° E visible
22 Dec 10.7 03:52:17 10° S 04:05:14 27° SE 04:19:52 10° E visible
22 Dec 10.4 06:02:42 10° SW 06:20:04 47° SSE 06:37:26 10° E visible
23 Dec 10.7 02:50:06 10° SSE 02:59:33 18° SE 03:10:22 10° E visible
23 Dec 10.4 04:57:37 10° SW 05:13:17 40° SSE 05:30:36 10° E visible
24 Dec 10.5 03:53:26 10° SSW 04:06:56 32° SE 04:22:58 10° E visible
24 Dec 10.3 06:04:45 10° SW 06:22:06 51° SSE 06:40:05 10° E visible
